Buena Park, CA

3:38 PM PST on February 09, 2016 (GMT -0800)
Fullerton Municipal

Weather History for KFUL - October, 2013

Change the Weather History Date:

Friday, October 4, 2013

  Actual Average Record
Temperature  
Mean Temperature 77 °F 70 °F  
Max Temperature 93 °F 80 °F 99 °F (2014)
Min Temperature 61 °F 60 °F 52 °F (2002)
Degree Days  
Heating Degree Days 0 0  
Month to date heating degree days 0 0  
Since 1 July heating degree days 0 1  
Cooling Degree Days 12 5  
Month to date cooling degree days 28 23  
Year to date cooling degree days 1779 1141  
Growing Degree Days 26 (Base 50)    
Moisture  
Dew Point 36 °F    
Average Humidity 47    
Maximum Humidity 90    
Minimum Humidity 4    
Precipitation  
Precipitation 0.00 in 0.01 in 0.10 in (2015)
Month to date precipitation 0.00 0.03  
Year to date precipitation 2.53 10.01  
Since 1 July precipitation T  
Snow  
Snow 0.00 in - - ()
Month to date snowfall 0.0  
Year to date snowfall 0.0  
Snow Depth 0.00 in    
Sea Level Pressure  
Sea Level Pressure 29.93 in    
Wind  
Wind Speed 4 mph (East)    
Max Wind Speed 21 mph    
Max Gust Speed 28 mph    
Visibility 9 miles    
Events      
T = Trace of Precipitation, MM = Missing Value Source: NWS Daily Summary

Daily Weather History Graph

Daily Weather History Graph

Search for Another Location

Airport or City:

Trip Planner

Search our weather history database for the weather conditions in past years. The results will help you decide how hot, cold, wet, or windy it might be!

Date:

Astronomy

Oct. 04, 2013 Rise Set
Actual Time 6:48 AM PDT 6:31 PM PDT
Civil Twilight 6:23 AM PDT 6:56 PM PDT
Nautical Twilight 5:54 AM PDT 7:25 PM PDT
Astronomical Twilight 5:25 AM PDT 7:54 PM PDT
Moon 6:28 AM PDT (10/4) 6:18 PM PDT (10/4)
Length of Visible Light 12h 32m
Length of Day
11h 42m
Waning Crescent, 0% of the Moon is Illuminated
Oct 4
Waning Crescent
Oct 4
New
Oct 11
First Quarter
Oct 18
Full
Oct 26
Last Quarter

Hourly Weather History & Observations

Time (PDT) Temp. Dew Point Humidity Pressure Visibility Wind Dir Wind Speed Gust Speed Precip Events Conditions
12:53 AM 64.9 °F 57.9 °F 78% 29.88 in 10.0 mi Calm Calm - N/A   Overcast
1:53 AM 66.0 °F 59.0 °F 78% 29.89 in 10.0 mi Calm Calm - N/A   Overcast
2:53 AM 66.0 °F 59.0 °F 78% 29.88 in 10.0 mi Calm Calm - N/A   Overcast
3:53 AM 64.9 °F 59.0 °F 81% 29.88 in 10.0 mi Calm Calm - N/A   Mostly Cloudy
4:53 AM 63.0 °F 59.0 °F 87% 29.88 in 10.0 mi Calm Calm - N/A   Mostly Cloudy
5:19 AM 62.6 °F 57.2 °F 82% 29.89 in 10.0 mi Calm Calm - N/A   Scattered Clouds
5:53 AM 61.0 °F 57.0 °F 87% 29.89 in 10.0 mi Calm Calm - N/A   Clear
6:53 AM 61.0 °F 57.0 °F 87% 29.91 in 8.0 mi Calm Calm - N/A   Clear
7:53 AM 63.0 °F 57.9 °F 84% 29.93 in 7.0 mi Calm Calm - N/A   Clear
8:53 AM 68.0 °F 57.0 °F 68% 29.95 in 6.0 mi Calm Calm - N/A   Haze
9:53 AM 72.0 °F 55.0 °F 55% 29.96 in 7.0 mi Calm Calm - N/A   Clear
10:53 AM 78.1 °F 51.1 °F 39% 29.96 in 10.0 mi WNW 4.6 mph - N/A   Clear
11:53 AM 82.0 °F 48.9 °F 31% 29.95 in 10.0 mi WNW 3.5 mph - N/A   Clear
12:53 PM 86.0 °F 46.0 °F 25% 29.93 in 10.0 mi Variable 3.5 mph - N/A   Clear
1:53 PM 91.0 °F 12.0 °F 5% 29.91 in 9.0 mi East 10.4 mph 21.9 mph N/A   Clear
2:53 PM 91.9 °F 9.0 °F 5% 29.90 in 10.0 mi ESE 15.0 mph - N/A   Clear
3:53 PM 91.0 °F 7.0 °F 4% 29.89 in 10.0 mi ESE 16.1 mph 25.3 mph N/A   Clear
4:53 PM 90.0 °F 5.0 °F 4% 29.89 in 8.0 mi ESE 13.8 mph 26.5 mph N/A   Clear
5:53 PM 87.1 °F 9.0 °F 5% 29.91 in 10.0 mi East 13.8 mph - N/A   Clear
6:53 PM 82.9 °F 8.1 °F 6% 29.94 in 10.0 mi East 9.2 mph - N/A   Clear
7:53 PM 81.0 °F 9.0 °F 6% 29.96 in 10.0 mi East 16.1 mph - N/A   Clear
8:53 PM 80.1 °F 12.9 °F 8% 29.99 in 8.0 mi East 20.7 mph 27.6 mph N/A   Clear
9:53 PM 79.0 °F 16.0 °F 9% 30.00 in 10.0 mi East 19.6 mph 26.5 mph N/A   Clear
10:53 PM 78.1 °F 17.1 °F 10% 30.01 in 10.0 mi East 16.1 mph 23.0 mph N/A   Clear
11:53 PM 78.1 °F 18.0 °F 10% 30.02 in 10.0 mi ENE 12.7 mph 23.0 mph N/A   Clear